This is the latest recevied weather packets stored in our database for station/object DO1MIT-10. If no packets are shown the sender has not sent any weather packets the latest 10 day(s).
| Time | Temp. | Humidity | Pressure | Rain* | Wind** | Luminosity | Snow |
|---|---|---|---|---|---|---|---|
| 1777662274 | 12.22° C | 52% | 1028.5 hPa | - | - | - | - |
| 1777661374 | 12.78° C | 51% | 1028.4 hPa | - | - | - | - |
| 1777660474 | 13.33° C | 50% | 1028.3 hPa | - | - | - | - |
| 1777659574 | 13.89° C | 48% | 1028.4 hPa | - | - | - | - |
| 1777658674 | 14.44° C | 47% | 1028.3 hPa | - | - | - | - |
| 1777657774 | 15.56° C | 47% | 1028.4 hPa | - | - | - | - |
| 1777656874 | 16.11° C | 46% | 1028.4 hPa | - | - | - | - |
| 1777655974 | 16.67° C | 45% | 1028.4 hPa | - | - | - | - |
| 1777655074 | 17.22° C | 44% | 1028.4 hPa | - | - | - | - |
| 1777654174 | 17.78° C | 44% | 1028.5 hPa | - | - | - | - |
| 1777653274 | 18.33° C | 43% | 1028.6 hPa | - | - | - | - |
| 1777652373 | 18.89° C | 43% | 1028.7 hPa | - | - | - | - |
| 1777651473 | 18.89° C | 43% | 1028.9 hPa | - | - | - | - |
| 1777650573 | 19.44° C | 43% | 1029.1 hPa | - | - | - | - |
| 1777649673 | 20° C | 42% | 1029.2 hPa | - | - | - | - |
| 1777648773 | 22.22° C | 42% | 1029.3 hPa | - | - | - | - |
| 1777647873 | 22.78° C | 42% | 1029.5 hPa | - | - | - | - |
| 1777646973 | 23.33° C | 42% | 1029.6 hPa | - | - | - | - |
| 1777646073 | 22.78° C | 43% | 1029.5 hPa | - | - | - | - |
| 1777645173 | 22.78° C | 44% | 1029.7 hPa | - | - | - | - |
| 1777644273 | 23.33° C | 44% | 1029.9 hPa | - | - | - | - |
| 1777643372 | 22.78° C | 45% | 1030 hPa | - | - | - | - |
| 1777642472 | 21.67° C | 45% | 1030.1 hPa | - | - | - | - |
| 1777641572 | 20° C | 46% | 1030.3 hPa | - | - | - | - |
| 1777640672 | 19.44° C | 46% | 1030.4 hPa | - | - | - | - |
* Rain since midnight (hover to see other rain measurements)
** Current wind speed in m/s (hover to see current wind gust speed)